Flag for Luxembourg Weather past 2 weeks in Ettelbruck, Luxembourg

Now
48 °F

Fog.


Feels Like: 46 °F
Forecast: 47 / 65 °F
Wind: 5 mph from Northwest

Location: Luxembourg Airport

Current Time: Sep 2, 2015 at 7:11:50 AM

Latest Report: Sep 2, 2015 at 6:20 AM


Visibility: 1 mi

Pressure: 30.07 "Hg

Humidity: 100%

Dew point: 48 °F

Location of EttelbruckLocation

Historic Weather in Ettelbruck — Graph

°F

Ettelbruck temperature yesterday

Maximum temperature yesterday: 68 °F (at 12:50 AM)
Minimum temperature yesterday: 54 °F (at 11:20 PM)
Average temperature yesterday: 61 °F

Past Weeks' High & Low Weather Summary

 TemperatureHumidityPressure
High90 °F (Aug 30, 5:20 PM)100% (Aug 23, 5:50 PM)30.27 "Hg (Aug 23, 5:50 PM)
Low48 °F (Aug 19, 3:50 AM)27% (Aug 31, 3:20 PM)29.62 "Hg (Aug 24, 12:20 PM)
Average66 °F70%30.01 "Hg
* Reported Aug 18 5:50 AM — Sep 2 5:20 AM, Ettelbruck, Weather by CustomWeather, © 2015

Note: Actual official high and low records may vary slightly from our data, if they occured in-between our weather recording intervals... More about our weather records

Advertising

Ettelbruck weather history for previous 24 hours

 ConditionsComfort  
Time TempWeatherWind HumidityBarometerVisibility
5:20 AM
Wed, Sep 2
50 °FFog.2 mph100%30.07 "Hg0 mi
4:50 AM50 °FFog.3 mph100%30.07 "Hg0 mi
4:20 AM52 °FCool.1 mph94%30.07 "HgN/A
3:50 AM52 °FCool.2 mph100%30.07 "HgN/A
3:20 AM52 °FCool.3 mph100%30.07 "HgN/A
2:50 AM52 °FCool.6 mph100%30.09 "Hg2 mi
2:20 AM52 °FCool.2 mph94%30.09 "HgN/A
1:50 AM52 °FClear.No wind100%30.09 "Hg10 mi
1:20 AM52 °FClear.No wind100%30.09 "Hg10 mi
12:50 AM54 °FClear.1 mph94%30.09 "Hg10 mi
11:20 PM
Tue, Sep 1
54 °FClear.7 mph94%30.07 "Hg10 mi
10:50 PM55 °FPassing clouds.7 mph94%30.07 "HgN/A
10:20 PM55 °FPassing clouds.7 mph94%30.07 "HgN/A
9:50 PM55 °FPassing clouds.5 mph94%30.07 "HgN/A
9:20 PM57 °FPassing clouds.7 mph94%30.07 "HgN/A
8:50 PM57 °FPassing clouds.7 mph94%30.07 "HgN/A
8:20 PM57 °FPartly sunny.6 mph100%30.04 "HgN/A
7:50 PM59 °FPartly sunny.6 mph94%30.04 "HgN/A
7:20 PM59 °FCool.7 mph94%30.04 "HgN/A
6:50 PM59 °FSprinkles. Partly sunny.10 mph94%30.01 "HgN/A
6:20 PM63 °FMild.6 mph77%30.01 "HgN/A
5:50 PM63 °FPassing clouds.8 mph77%30.01 "HgN/A
5:20 PM63 °FPassing clouds.10 mph77%29.98 "HgN/A
4:50 PM64 °FPartly sunny.7 mph78%29.98 "HgN/A
4:20 PM63 °FMild.9 mph83%29.98 "HgN/A
3:50 PM63 °FPartly sunny.8 mph88%29.98 "HgN/A
3:20 PM61 °FPartly sunny.9 mph94%29.98 "HgN/A
2:50 PM61 °FPartly sunny.9 mph94%29.95 "HgN/A
2:20 PM59 °FLight rain. Partly sunny.10 mph94%29.95 "HgN/A
1:50 PM59 °FSprinkles. Broken clouds.8 mph94%29.95 "HgN/A
1:20 PM59 °FSprinkles. Broken clouds.9 mph100%29.92 "HgN/A
12:50 PM61 °FSprinkles. Broken clouds.9 mph94%29.89 "HgN/A
12:20 PM61 °FSprinkles. Broken clouds.9 mph94%29.89 "HgN/A
11:50 AM61 °FSprinkles. Partly sunny.9 mph94%29.86 "HgN/A
11:20 AM59 °FSprinkles. Partly sunny.9 mph100%29.86 "Hg4 mi
10:50 AM59 °FRain showers. Partly sunny.8 mph100%29.83 "Hg4 mi
10:20 AM59 °FRain showers. Fog.12 mph100%29.83 "Hg2 mi
9:50 AM59 °FRain showers. Fog.3 mph100%29.83 "Hg2 mi
9:20 AM61 °FSprinkles. Broken clouds.9 mph94%29.83 "Hg4 mi
8:50 AM61 °FSprinkles. Broken clouds.7 mph100%29.80 "Hg4 mi
8:20 AM61 °FRain showers. Fog.9 mph100%29.80 "Hg1 mi
7:50 AM63 °FLight rain. Fog.12 mph100%29.77 "Hg1 mi
7:20 AM64 °FThunderstorms. Fog.9 mph94%29.80 "Hg1 mi
Weather by CustomWeather, © 2015

See weather overviewHow to use our weather pages